User: anonymous   Login
Location: ??
(35.5052°N, 139.7262°E)
Time: 15:41:59
(UTC+00:00)
Language:

Cosmos 405 - Orbit

View from above orbital plane
View from above orbital plane
View from above satellite
View from above satellite

Ground track
Ground track

The orbit data is extracted from the following two-line orbital elements,

1 05117U 71028A   21262.88929877  .00002574  00000-0  68055-4 0  9999
2 05117  81.2620 314.4748 0009925 165.2091   7.5932 15.37959070751190
Epoch (UTC): 19 September 2021 21:20:35
Eccentricity: 0.0009925
inclination: 81.2620°
perigee height: 445 km
apogee height: 459 km
right ascension of ascending node: 314.4748°
argument of perigee: 165.2091°
revolutions per day: 15.37959070
mean anomaly at epoch: 7.5932°
orbit number at epoch: 75119

The dashed part of the orbit path shows where the satellite is in the earth's shadow,  

DLR